Location: Caltech
(34.1382°N, 118.1253°W)
Time: 17:34:38
(UTC-07:00)

Daily predictions for brighter satellites

Satellite Brightness Start Highest point End
(mag) Time Altitude Azimuth Time Altitude Azimuth Time Altitude Azimuth
Cosmos 2278 Rocket 2.3 19:26:16 10° SSW 19:31:56 89° SE 19:37:39 10° NNE
SJ-6B 2.8 19:32:50 10° SSE 19:36:28 53° ENE 19:40:07 10° N
ATLAS 5 CENTAUR R/B 2.5 19:34:31 10° S 19:38:30 30° ESE 19:42:43 10° NE
Cosmos 2344 4.1 19:31:09 10° SW 19:38:48 70° WNW 19:47:06 10° NNE
Yuri Rocket 4.1 19:35:00 10° WSW 19:39:14 35° S 19:43:01 10° ESE
NOAA 12 4.3 19:37:20 10° S 19:42:39 82° WSW 19:47:58 10° NNW
Timation 1 Rocket 4.4 19:38:32 10° S 19:44:27 64° ESE 19:50:24 10° NNE
H-2A R/B 3.6 19:41:18 10° SE 19:44:45 31° ENE 19:48:15 10° N
Cosmos 2123 Rocket 4.0 19:40:20 10° N 19:46:35 62° E 19:52:45 10° SSE
CZ-3C R/B 4.0 19:40:59 10° WSW 19:46:41 14° SW 19:49:45 10° SSW
Cosmos 2297 3.8 19:43:39 10° S 19:49:10 54° ESE 19:54:44 10° NNE
Resurs 1-3 4.3 19:48:14 10° SE 19:52:11 34° ENE 19:56:08 10° N
Cosmos 1125 Rocket 3.4 19:51:45 10° S 19:56:51 65° ESE 20:02:01 10° NNE
FengYun 1-2 T 4.2 19:52:20 10° SSE 19:57:51 69° ENE 20:03:25 10° N
Delta 128 4.4 19:55:45 10° WSW 20:00:02 38° S 20:03:09 16° ESE
HJ-1C 3.3 19:57:11 10° SSE 20:00:33 77° E 20:03:58 10° N
Cosmos 1758 3.2 19:59:12 10° S 20:03:07 63° E 20:07:04 10° NNE
SeaSat 1 2.5 19:59:10 10° SE 20:04:00 64° ENE 20:08:54 10° NNW
Geosat 4.1 20:00:13 10° NE 20:05:06 50° ESE 20:09:56 10° S
Cosmos 2082 Rocket 2.9 20:00:49 10° N 20:06:00 35° ENE 20:09:47 17° ESE
GPS 2-05 Rocket1 2.8 20:03:07 10° W 20:06:40 86° N 20:09:03 20° ENE
ALOS 2.4 20:02:50 10° S 20:07:29 79° WSW 20:12:11 10° NNW
Cosmos 1953 2.2 20:06:09 10° S 20:10:11 71° E 20:14:14 10° N
Cosmos 1271 Rocket 3.5 20:06:40 10° SSE 20:10:13 31° E 20:13:48 10° NNE
Meteor 1-24 Rocket 4.4 20:05:36 10° NNW 20:11:03 58° W 20:16:41 10° S
SL-27 R/B 4.0 20:07:56 10° NNW 20:11:19 39° WSW 20:14:43 10° S
SAR-Lupe-4 4.3 20:15:34 26° ESE 20:16:42 32° ENE 20:19:56 10° N
Helios 1B rocket 2.7 20:13:03 10° NNE 20:16:59 42° E 20:20:53 10° S
Abrixas 3.1 20:15:01 10° NW 20:17:39 36° NNE 20:18:13 32° ENE
Tiangong 1 2.0 20:16:17 10° WNW 20:19:01 36° SW 20:20:18 23° SSE
Cosmos 1459 Rocket 4.3 20:13:45 10° SSE 20:19:36 43° E 20:25:23 10° NNE
Cosmos 1939 Rocket 4.5 20:20:09 19° ENE 20:20:09 19° ENE 20:22:50 10° NNE
Okean 3 Rocket 3.7 20:15:55 10° N 20:20:20 80° W 20:24:45 10° S
OAO 2 Rocket 4.1 20:17:40 10° SW 20:22:22 36° SSE 20:24:21 26° ESE
Meteor 1-29 3.5 20:19:26 10° NNE 20:22:40 35° E 20:23:14 33° ESE
Cosmos 1076 Rocket 3.3 20:19:42 10° N 20:23:56 69° E 20:28:04 10° SSE
Cosmos 1447 Rocket 4.4 20:18:00 10° N 20:24:06 68° E 20:30:14 10° SSE
SWAS 4.4 20:19:53 10° SSW 20:24:10 87° ESE 20:28:29 10° NNE
CZ-4B DEB 4.5 20:25:30 19° NE 20:25:30 19° NE 20:26:54 10° NNE
Cosmos 1674 3.0 20:21:46 10° N 20:25:24 43° E 20:26:29 33° ESE
Cosmos 2173 Rocket 4.1 20:20:52 10° SSE 20:26:43 48° E 20:32:39 10° NNE
COSMOS 2487 2.6 20:26:51 10° N 20:30:20 51° ENE 20:30:55 45° ESE
Helios 1A 3.1 20:29:49 30° SE 20:31:31 52° ENE 20:35:36 10° N
ISS -2.8 20:29:28 10° WSW 20:32:36 45° NW 20:34:47 17° NNE
Lacrosse 5 rocket 2.9 20:31:08 10° N 20:33:54 18° NE 20:33:58 18° NE
USA 186 3.4 20:36:23 16° N 20:36:23 16° N 20:36:59 10° N
SAR-Lupe-1 4.2 20:35:10 49° E 20:35:26 50° ENE 20:38:55 10° N
Meteor 1-4 Rocket 4.3 20:37:52 10° SW 20:41:01 32° WNW 20:44:12 10° NNW
CZ-2D R/B 3.6 20:38:55 13° S 20:42:18 63° W 20:46:10 10° NNW
Cosmos 1818 3.6 20:37:12 10° NNW 20:42:39 80° WSW 20:45:51 25° SSE
GP-B 3.0 20:38:28 10° S 20:42:54 87° E 20:47:21 10° N
Cosmos 1269 Rocket 3.9 20:40:22 10° NNW 20:45:40 89° ENE 20:48:47 25° SSE
Cosmos 1766 Rocket 3.5 20:41:16 10° N 20:45:46 88° E 20:48:15 26° S
Cosmos-2242 3.0 20:43:13 10° S 20:47:27 79° W 20:51:43 10° N
Delta 168 4.4 20:45:32 10° SW 20:47:54 19° SSW 20:47:54 19° SSW
Resurs 01 Rocket 3.0 20:46:40 10° SSW 20:50:46 39° W 20:54:55 10° NNW
Cosmos 158 Rocket 4.0 20:53:23 10° NNW 20:58:35 83° WSW 21:00:40 38° S
Cosmos 2016 Rocket 3.9 20:52:30 10° S 20:58:39 64° E 21:04:45 10° NNE
Cosmos 1470 3.7 21:00:11 10° SSW 21:04:01 47° W 21:07:52 10° N
Cosmos 1733 4.3 21:03:20 10° SSW 21:07:02 44° W 21:10:46 10° N
H-2A R/B (2) 3.2 21:03:48 10° WSW 21:07:13 37° S 21:08:06 35° SSE
Cosmos 1725 Rocket 4.1 21:08:00 50° E 21:08:00 50° E 21:13:38 10° NNE
Aurora 2 Rocket 4.0 21:02:17 10° WSW 21:08:23 33° S 21:08:34 33° S
USA 215 3.1 21:02:18 10° NE 21:08:52 89° SE 21:15:24 10° SW
Cosmos 1833 Rocket 2.9 21:06:11 10° NNW 21:11:46 68° WSW 21:13:40 41° S
Cosmos 1743 Rocket 4.0 21:12:37 10° N 21:16:06 55° N 21:16:06 55° N
Cosmos 1340 Rocket 3.6 21:15:24 10° NNW 21:18:38 48° NW 21:18:38 48° NW
SL-08 R/B 4.4 21:18:13 42° S 21:20:36 82° E 21:27:02 10° N
ATLAS 5 CENTAUR R/B 3.9 21:19:09 10° WSW 21:23:06 26° NW 21:27:19 10° N
Envisat 3.4 21:26:08 55° SW 21:26:51 61° W 21:31:53 10° NNW
Tsikada Rocket 4.3 21:25:43 10° N 21:30:36 50° NE 21:30:36 50° NE
H-2A R/B 4.4 21:42:52 14° NNE 21:42:52 14° NNE 21:43:41 10° NNE
ERS-1 Rocket 3.9 21:43:18 43° NNW 21:43:18 43° NNW 21:46:41 10° NNW
Gblst 52 Del rocket 4.5 21:37:00 10° WSW 21:42:52 64° NW 21:42:52 64° NW
Cosmos 2082 Rocket 3.9 21:45:13 10° NW 21:49:51 26° WSW 21:51:42 22° SW
